TimeCST,TemperatureF,Dew PointF,Humidity,Sea Level PressureIn,VisibilityMPH,Wind Direction,Wind SpeedMPH,Gust SpeedMPH,PrecipitationIn,Events,Conditions,WindDirDegrees,DateUTC
12:55 AM,46.0,34.0,63,30.01,10.0,SSW,11.5,-,N/A,,Clear,210,2012-11-30 06:55:00
1:55 AM,46.0,33.1,61,30.02,10.0,SW,10.4,-,N/A,,Clear,220,2012-11-30 07:55:00
2:55 AM,44.1,33.1,65,30.04,10.0,SW,9.2,-,N/A,,Clear,230,2012-11-30 08:55:00
3:55 AM,43.0,33.1,68,30.03,10.0,SW,6.9,-,N/A,,Clear,220,2012-11-30 09:55:00
4:55 AM,43.0,33.1,68,30.03,10.0,SSW,9.2,-,N/A,,Clear,210,2012-11-30 10:55:00
5:55 AM,43.0,33.1,68,30.04,10.0,SW,8.1,-,N/A,,Clear,220,2012-11-30 11:55:00
6:55 AM,43.0,34.0,71,30.05,10.0,SW,9.2,-,N/A,,Clear,220,2012-11-30 12:55:00
7:55 AM,43.0,34.0,71,30.06,10.0,SW,9.2,-,N/A,,Clear,230,2012-11-30 13:55:00
8:55 AM,46.0,35.1,66,30.07,10.0,WSW,8.1,-,N/A,,Clear,240,2012-11-30 14:55:00
9:55 AM,50.0,36.0,59,30.08,10.0,WSW,6.9,-,N/A,,Clear,250,2012-11-30 15:55:00
10:55 AM,52.0,37.0,57,30.09,10.0,West,6.9,-,N/A,,Clear,280,2012-11-30 16:55:00
11:55 AM,54.0,37.0,53,30.07,10.0,WSW,5.8,-,N/A,,Clear,240,2012-11-30 17:55:00
12:55 PM,55.0,36.0,49,30.06,10.0,SW,6.9,-,N/A,,Clear,220,2012-11-30 18:55:00
1:55 PM,57.9,37.0,46,30.06,10.0,West,6.9,-,N/A,,Clear,270,2012-11-30 19:55:00
2:55 PM,59.0,37.0,44,30.06,10.0,Variable,4.6,-,N/A,,Clear,0,2012-11-30 20:55:00
3:55 PM,57.0,37.0,47,30.07,10.0,WSW,3.5,-,N/A,,Clear,250,2012-11-30 21:55:00
4:55 PM,50.0,36.0,59,30.07,10.0,Calm,Calm,-,N/A,,Clear,0,2012-11-30 22:55:00
5:55 PM,46.0,36.0,68,30.09,10.0,Calm,Calm,-,N/A,,Clear,0,2012-11-30 23:55:00
6:55 PM,39.0,34.0,82,30.09,10.0,Calm,Calm,-,N/A,,Clear,0,2012-12-01 00:55:00
7:55 PM,39.0,34.0,82,30.10,10.0,Calm,Calm,-,N/A,,Clear,0,2012-12-01 01:55:00
8:55 PM,35.1,32.0,89,30.09,10.0,Calm,Calm,-,N/A,,Clear,0,2012-12-01 02:55:00
9:55 PM,37.9,33.1,83,30.08,10.0,ESE,4.6,-,N/A,,Clear,110,2012-12-01 03:55:00
10:55 PM,37.9,34.0,86,30.07,10.0,SE,3.5,-,N/A,,Clear,130,2012-12-01 04:55:00
11:55 PM,36.0,33.1,89,30.07,9.0,ESE,3.5,-,N/A,,Clear,120,2012-12-01 05:55:00